| time (UTC) | temp F | wind direction | speed knots | gust knots | rain 1hr in | rain 24hr in | rain mn in | humidity % | barometer mb |
| 20260506014524 | 57 | 107 | 1.7 | 2.6 | 0.00 | 0.20 | 0.00 | 94 | 1009.9 |
| 20260506013524 | 57 | 130 | 0.9 | 2.6 | 0.00 | 0.20 | 0.00 | 94 | 1010.2 |
| 20260506012524 | 57 | 121 | 2.6 | 7.8 | 0.00 | 0.20 | 0.00 | 94 | 1010.2 |
| 20260506011524 | 57 | 104 | 4.3 | 4.3 | 0.00 | 0.20 | 0.00 | 94 | 1009.9 |
| 20260506010524 | 57 | 94 | 1.7 | 2.6 | 0.00 | 0.20 | 0.00 | 94 | 1010.0 |
| 20260506005524 | 57 | 101 | 1.7 | 5.2 | 0.00 | 0.20 | 0.00 | 93 | 1009.9 |
| 20260506004524 | 57 | 66 | 2.6 | 7.0 | 0.00 | 0.20 | 0.00 | 93 | 1009.8 |
| 20260506003524 | 57 | 79 | 2.6 | 4.3 | 0.00 | 0.20 | 0.00 | 93 | 1010.1 |
| 20260506002524 | 57 | 72 | 1.7 | 2.6 | 0.00 | 0.20 | 0.00 | 93 | 1010.3 |
| 20260506001524 | 57 | 46 | 0.9 | 1.7 | 0.00 | 0.20 | 0.00 | 93 | 1010.5 |
| 20260506000524 | 57 | 31 | 0.9 | 1.7 | 0.00 | 0.20 | 0.00 | 93 | 1010.6 |
| 20260505235524 | 58 | 26 | 0.9 | 2.6 | 0.00 | 0.20 | 0.00 | 93 | 1010.8 |
| 20260505234524 | 58 | 89 | 0.9 | 2.6 | 0.00 | 0.20 | 0.00 | 93 | 1011.1 |
| 20260505233524 | 58 | 102 | 1.7 | 4.3 | 0.00 | 0.20 | 0.00 | 93 | 1011.1 |
| 20260505232524 | 58 | 130 | 1.7 | 6.1 | 0.00 | 0.20 | 0.00 | 93 | 1011.2 |
| 20260505231524 | 58 | 101 | 1.7 | 2.6 | 0.00 | 0.20 | 0.00 | 93 | 1011.1 |
| 20260505230524 | 58 | 76 | 0.9 | 1.7 | 0.00 | 0.20 | 0.00 | 93 | 1011.0 |
| 20260505225524 | 58 | 81 | 1.7 | 2.6 | 0.00 | 0.20 | 0.00 | 93 | 1011.1 |
| 20260505224524 | 58 | 71 | 0.9 | 1.7 | 0.00 | 0.20 | 0.00 | 93 | 1011.0 |
| 20260505223524 | 58 | 24 | 0.9 | 1.7 | 0.00 | 0.20 | 0.00 | 93 | 1011.3 |
| 20260505222524 | 58 | 40 | 0.0 | 1.7 | 0.00 | 0.20 | 0.00 | 93 | 1011.2 |
| 20260505221524 | 58 | 55 | 0.9 | 1.7 | 0.00 | 0.20 | 0.00 | 93 | 1011.3 |
| 20260505220524 | 58 | 61 | 0.9 | 1.7 | 0.00 | 0.20 | 0.00 | 93 | 1011.4 |
| 20260505215524 | 58 | 61 | 0.9 | 1.7 | 0.00 | 0.20 | 0.20 | 93 | 1011.4 |
| 20260505214524 | 58 | 79 | 0.9 | 1.7 | 0.00 | 0.20 | 0.20 | 92 | 1011.5 |
| 20260505213524 | 58 | 85 | 0.0 | 0.9 | 0.00 | 0.20 | 0.20 | 92 | 1011.6 |
| 20260505212523 | 58 | 60 | 0.9 | 2.6 | 0.00 | 0.20 | 0.20 | 92 | 1011.6 |
| 20260505211523 | 58 | 53 | 0.9 | 1.7 | 0.00 | 0.20 | 0.20 | 92 | 1011.6 |
| 20260505210523 | 58 | 79 | 0.9 | 1.7 | 0.00 | 0.20 | 0.20 | 92 | 1011.8 |
| 20260505205523 | 58 | 78 | 0.9 | 1.7 | 0.00 | 0.20 | 0.20 | 92 | 1011.9 |
| 20260505204523 | 58 | 79 | 0.0 | 0.9 | 0.01 | 0.20 | 0.20 | 91 | 1011.9 |
| 20260505203523 | 59 | 54 | 0.9 | 0.9 | 0.01 | 0.20 | 0.20 | 91 | 1011.8 |
| 20260505202523 | 59 | 72 | 1.7 | 2.6 | 0.02 | 0.20 | 0.20 | 91 | 1011.8 |
| 20260505201523 | 59 | 89 | 0.9 | 2.6 | 0.02 | 0.20 | 0.20 | 91 | 1011.8 |
| 20260505200523 | 59 | 113 | 0.9 | 1.7 | 0.02 | 0.20 | 0.20 | 90 | 1011.8 |
| 20260505195523 | 59 | 102 | 0.9 | 2.6 | 0.02 | 0.20 | 0.20 | 90 | 1011.9 |
| 20260505194523 | 59 | 103 | 1.7 | 2.6 | 0.01 | 0.19 | 0.19 | 89 | 1011.8 |
| 20260505193523 | 60 | 112 | 0.9 | 2.6 | 0.01 | 0.19 | 0.19 | 89 | 1011.8 |
| 20260505192523 | 60 | 104 | 0.0 | 2.6 | 0.00 | 0.18 | 0.18 | 89 | 1011.8 |
| 20260505191523 | 60 | 92 | 1.7 | 2.6 | 0.00 | 0.18 | 0.18 | 89 | 1011.7 |
| 20260505190523 | 60 | 129 | 1.7 | 2.6 | 0.00 | 0.18 | 0.18 | 89 | 1011.7 |
| 20260505185523 | 60 | 78 | 0.0 | 0.9 | 0.00 | 0.18 | 0.18 | 89 | 1011.5 |
| 20260505184523 | 60 | 63 | 0.0 | 0.9 | 0.00 | 0.18 | 0.18 | 89 | 1011.6 |
| 20260505183523 | 60 | 54 | 0.9 | 0.9 | 0.00 | 0.18 | 0.18 | 89 | 1011.6 |
| 20260505182523 | 60 | 76 | 0.9 | 1.7 | 0.00 | 0.18 | 0.18 | 89 | 1011.5 |
| 20260505181523 | 60 | 46 | 0.9 | 2.6 | 0.00 | 0.18 | 0.18 | 89 | 1011.4 |
| 20260505180523 | 60 | 107 | 1.7 | 4.3 | 0.00 | 0.18 | 0.18 | 89 | 1011.4 |
| 20260505175523 | 60 | 89 | 0.9 | 1.7 | 0.00 | 0.18 | 0.18 | 89 | 1011.3 |
| 20260505174523 | 60 | 61 | 2.6 | 4.3 | 0.00 | 0.18 | 0.18 | 89 | 1011.3 |
| 20260505173523 | 60 | 68 | 0.9 | 1.7 | 0.00 | 0.18 | 0.18 | 89 | 1011.4 |
| 20260505172523 | 60 | 84 | 0.9 | 1.7 | 0.00 | 0.18 | 0.18 | 89 | 1011.4 |
| 20260505171523 | 60 | 93 | 0.9 | 1.7 | 0.00 | 0.18 | 0.18 | 89 | 1011.4 |
| 20260505170523 | 60 | 95 | 1.7 | 2.6 | 0.00 | 0.18 | 0.18 | 89 | 1011.3 |
| 20260505165523 | 60 | 86 | 0.9 | 0.9 | 0.00 | 0.18 | 0.18 | 89 | 1011.2 |
| 20260505164523 | 59 | 115 | 1.7 | 4.3 | 0.00 | 0.18 | 0.18 | 89 | 1011.3 |
| 20260505163523 | 59 | 87 | 0.9 | 1.7 | 0.00 | 0.18 | 0.18 | 89 | 1011.4 |
| 20260505162523 | 59 | 103 | 0.9 | 2.6 | 0.00 | 0.18 | 0.18 | 89 | 1011.6 |
| 20260505161523 | 59 | 98 | 0.9 | 1.7 | 0.00 | 0.18 | 0.18 | 90 | 1011.6 |
| 20260505160523 | 59 | 127 | 0.9 | 2.6 | 0.00 | 0.18 | 0.18 | 92 | 1011.6 |
| 20260505152523 | 59 | 99 | 0.9 | 1.7 | 0.00 | 0.18 | 0.18 | 90 | 1011.6 |
| 20260505151523 | 59 | 105 | 4.3 | 7.8 | 0.00 | 0.18 | 0.18 | 90 | 1011.6 |
| 20260505150523 | 59 | 75 | 2.6 | 4.3 | 0.00 | 0.18 | 0.18 | 90 | 1011.7 |
| 20260505140523 | 59 | 81 | 2.6 | 4.3 | 0.01 | 0.18 | 0.18 | 88 | 1011.8 |
| 20260505124523 | 61 | 114 | 0.9 | 2.6 | 0.00 | 0.17 | 0.17 | 81 | 1012.1 |
| 20260505123523 | 62 | 117 | 0.9 | 2.6 | 0.00 | 0.17 | 0.17 | 80 | 1012.0 |
| 20260505122523 | 62 | 75 | 2.6 | 6.1 | 0.00 | 0.17 | 0.17 | 79 | 1011.9 |
| 20260505121523 | 62 | 78 | 2.6 | 4.3 | 0.00 | 0.17 | 0.17 | 79 | 1011.9 |
| 20260505120523 | 63 | 70 | 2.6 | 5.2 | 0.00 | 0.17 | 0.17 | 79 | 1012.0 |
| 20260505115523 | 62 | 67 | 4.3 | 7.0 | 0.00 | 0.17 | 0.17 | 80 | 1012.0 |
| 20260505114523 | 62 | 98 | 1.7 | 2.6 | 0.00 | 0.17 | 0.17 | 80 | 1012.0 |
| 20260505113523 | 61 | 149 | 4.3 | 6.1 | 0.00 | 0.17 | 0.17 | 81 | 1012.0 |
| 20260505112523 | 61 | 83 | 0.9 | 4.3 | 0.00 | 0.17 | 0.17 | 82 | 1012.0 |
| 20260505111523 | 60 | 64 | 2.6 | 2.6 | 0.00 | 0.17 | 0.17 | 83 | 1012.2 |
| 20260505110523 | 60 | 78 | 4.3 | 6.1 | 0.00 | 0.17 | 0.17 | 84 | 1012.3 |
| 20260505101523 | 59 | 94 | 0.9 | 1.7 | 0.00 | 0.17 | 0.17 | 89 | 1012.4 |
| 20260505100523 | 58 | 120 | 0.9 | 2.6 | 0.00 | 0.17 | 0.17 | 89 | 1012.4 |
| 20260505095523 | 58 | 92 | 0.9 | 1.7 | 0.00 | 0.17 | 0.17 | 89 | 1012.5 |
| 20260505094523 | 58 | 86 | 0.0 | 0.9 | 0.00 | 0.17 | 0.17 | 89 | 1012.4 |
| 20260505093523 | 58 | 79 | 0.0 | 1.7 | 0.00 | 0.17 | 0.17 | 90 | 1012.4 |
| 20260505092523 | 58 | 39 | 0.0 | 1.7 | 0.00 | 0.17 | 0.17 | 90 | 1012.3 |
| 20260505091523 | 58 | 77 | 0.9 | 0.9 | 0.00 | 0.17 | 0.17 | 90 | 1012.4 |
| 20260505090523 | 57 | 24 | 0.9 | 1.7 | 0.01 | 0.17 | 0.17 | 91 | 1012.2 |
| 20260505085523 | 57 | 322 | 0.9 | 1.7 | 0.01 | 0.17 | 0.17 | 91 | 1012.2 |
| 20260505084523 | 57 | 18 | 0.9 | 1.7 | 0.03 | 0.17 | 0.17 | 91 | 1012.0 |
| 20260505083523 | 57 | 288 | 0.0 | 0.9 | 0.03 | 0.17 | 0.17 | 91 | 1012.1 |
| 20260505082522 | 57 | 297 | 0.9 | 1.7 | 0.04 | 0.17 | 0.17 | 92 | 1012.2 |
| 20260505081523 | 56 | 317 | 0.0 | 1.7 | 0.08 | 0.17 | 0.17 | 92 | 1012.2 |
| 20260505080523 | 56 | 285 | 0.9 | 1.7 | 0.08 | 0.16 | 0.16 | 91 | 1012.1 |
| 20260505075522 | 56 | 309 | 0.9 | 1.7 | 0.09 | 0.16 | 0.16 | 91 | 1012.2 |
| 20260505074522 | 56 | 315 | 0.9 | 1.7 | 0.08 | 0.14 | 0.14 | 91 | 1012.2 |
| 20260505073522 | 56 | 15 | 0.9 | 1.7 | 0.08 | 0.14 | 0.14 | 91 | 1012.0 |
| 20260505072522 | 56 | 112 | 0.0 | 0.9 | 0.07 | 0.13 | 0.13 | 91 | 1012.2 |
| 20260505071522 | 56 | 112 | 0.0 | 0.9 | 0.04 | 0.09 | 0.09 | 91 | 1012.2 |
| 20260505070522 | 56 | 167 | 0.0 | 0.9 | 0.04 | 0.08 | 0.08 | 90 | 1012.3 |
| 20260505065522 | 56 | 255 | 0.9 | 1.7 | 0.04 | 0.07 | 0.07 | 90 | 1012.4 |
| 20260505064522 | 56 | 281 | 1.7 | 2.6 | 0.04 | 0.06 | 0.06 | 90 | 1012.5 |
| 20260505063522 | 56 | 248 | 2.6 | 2.6 | 0.05 | 0.06 | 0.06 | 89 | 1012.5 |
| 20260505062522 | 56 | 226 | 4.3 | 7.0 | 0.05 | 0.06 | 0.06 | 89 | 1012.4 |
| 20260505061522 | 56 | 235 | 4.3 | 5.2 | 0.05 | 0.05 | 0.05 | 88 | 1012.4 |
| 20260505060522 | 57 | 259 | 6.1 | 7.0 | 0.04 | 0.04 | 0.04 | 87 | 1012.3 |
| 20260505055522 | 57 | 248 | 5.2 | 5.2 | 0.03 | 0.03 | 0.03 | 86 | 1012.2 |
| 20260505054522 | 57 | 245 | 5.2 | 8.7 | 0.02 | 0.02 | 0.02 | 84 | 1012.2 |
| 20260505053522 | 58 | 265 | 1.7 | 2.6 | 0.01 | 0.01 | 0.01 | 83 | 1011.8 |
| 20260505052522 | 59 | 241 | 0.9 | 2.6 | 0.01 | 0.01 | 0.01 | 81 | 1011.7 |
| 20260505051522 | 59 | 229 | 1.7 | 2.6 | 0.00 | 0.00 | 0.00 | 79 | 1011.7 |
| 20260505050522 | 59 | 232 | 0.9 | 1.7 | 0.00 | 0.00 | 0.00 | 78 | 1011.6 |
| 20260505041522 | 60 | 230 | 0.9 | 2.6 | 0.00 | 0.00 | 0.00 | 73 | 1011.3 |
| 20260505040522 | 60 | 219 | 0.9 | 1.7 | 0.00 | 0.00 | 0.00 | 72 | 1011.3 |
| 20260505035522 | 60 | 230 | 0.9 | 0.9 | 0.00 | 0.00 | 0.00 | 72 | 1011.3 |
| 20260505034522 | 61 | 223 | 0.9 | 1.7 | 0.00 | 0.00 | 0.00 | 71 | 1011.2 |
| 20260505033522 | 61 | 190 | 0.0 | 0.9 | 0.00 | 0.00 | 0.00 | 71 | 1011.4 |
| 20260505032522 | 61 | 207 | 0.0 | 0.9 | 0.00 | 0.00 | 0.00 | 70 | 1011.5 |
| 20260505031522 | 61 | 207 | 0.9 | 1.7 | 0.00 | 0.00 | 0.00 | 69 | 1011.7 |
| 20260505030522 | 62 | 198 | 0.9 | 1.7 | 0.00 | 0.00 | 0.00 | 68 | 1011.8 |
| 20260505025522 | 62 | 244 | 0.9 | 1.7 | 0.00 | 0.00 | 0.00 | 66 | 1011.8 |
| 20260505024522 | 62 | 291 | 0.0 | 0.9 | 0.00 | 0.00 | 0.00 | 65 | 1012.0 |
| 20260505023522 | 62 | 265 | 0.9 | 1.7 | 0.00 | 0.00 | 0.00 | 64 | 1012.0 |
| 20260505022522 | 62 | 309 | 1.7 | 2.6 | 0.00 | 0.00 | 0.00 | 63 | 1012.1 |
| 20260505021522 | 62 | 302 | 1.7 | 4.3 | 0.00 | 0.00 | 0.00 | 62 | 1012.1 |
| 20260505020522 | 62 | 295 | 1.7 | 4.3 | 0.00 | 0.00 | 0.00 | 62 | 1012.2 |
| 20260505015522 | 63 | 283 | 2.6 | 2.6 | 0.00 | 0.00 | 0.00 | 61 | 1012.3 |